QPF
0.00 0.00 0.00 0.00 0.00 0.00 0.00 0.00 0.00 0.00 0.00 0.00 0.00 0.00 0.00 0.00 0.00 0.00 0.00 0.00 0.00 0.00 0.00 0.00 0.00 0.00 0.00 0.00 0.00 0.00 0.02 0.00 0.00 0.00 0.00 0.00 0.00 0.00 0.00 0.00 0.00 0.00 0.00 0.00 0.00
0.00 0.00 0.00 0.00 0.00 0.00 0.00 0.00 0.00 0.00 0.00 0.00 0.00 0.00 0.00 0.00 0.00 0.00 0.00 0.00 0.00 0.00 0.00 0.00 0.00 0.00 0.00 0.00 0.00 0.00 0.02 0.00 0.00 0.00 0.00 0.00 0.00 0.00 0.00 0.00 0.00 0.00 0.00 0.00 0.00
0.00 0.00 0.00 0.00 0.00 0.00 0.00 0.00 0.00 0.00 0.00 0.00 0.00 0.00 0.00 0.00 0.00 0.00 0.00 0.00 0.00 0.00 0.00 0.00 0.00 0.00 0.00 0.00 0.00 0.00 0.00 0.00 0.00 0.00 0.00 0.00 0.00 0.00 0.00 0.00 0.00 0.00 0.00 0.00 0.00
0.00 0.00 0.00 0.00 0.00 0.00 0.00 0.00 0.00 0.00 0.00 0.00 0.00 0.00 0.00 0.00 0.00 0.00 0.00 0.00 0.00 0.00 0.00 0.00 0.00 0.00 0.00 0.00 0.00 0.00 0.00 0.00 0.00 0.00 0.00 0.00 0.00 0.00 0.00 0.00 0.00 0.00 0.00 0.00 0.00
0.00 0.00 0.00 0.00 0.00 0.00 0.00 0.00 0.00 0.00 0.00 0.00 0.00 0.00 0.00 0.00 0.00 0.00 0.00 0.00 0.00 0.00 0.00 0.00 0.00 0.00 0.00 0.00 0.00 0.00 0.00 0.00 0.00 0.00 0.00 0.00 0.00 0.00 0.00 0.00 0.00 0.00 0.00 0.00 0.00
0.00 0.00 0.00 0.00 0.00 0.00 0.00 0.00 0.00 0.00 0.00 0.00 0.00 0.00 0.00 0.00 0.00 0.00 0.00 0.00 0.00 0.00 0.00 0.00 0.00 0.00 0.00 0.00 0.00 0.00 0.00 0.00 0.00 0.00 0.00 0.00 0.00 0.00 0.00 0.00 0.00 0.00 0.00 0.00 0.00
0.00 0.00 0.00 0.00 0.00 0.00 0.00 0.00 0.00 0.00 0.00 0.00 0.00 0.00 0.00 0.00 0.00 0.00 0.00 0.00 0.00 0.00 0.00 0.00 0.00 0.00 0.00 0.00 0.00 0.00 0.00 0.00 0.00 0.00 0.00 0.00 0.00 0.00 0.00 0.00 0.00 0.00 0.00 0.00 0.00
0.00 0.00 0.00 0.00 0.00 0.00 0.00 0.00 0.00 0.00 0.00 0.00 0.00 0.00 0.00 0.00 0.00 0.00 0.00 0.00 0.00 0.00 0.00 0.00 0.00 0.00 0.00 0.00 0.00 0.00 0.00 0.00 0.00 0.00 0.00 0.00 0.00 0.00 0.00 0.00 0.00 0.00 0.00 0.00 0.00
0.00 0.00 0.00 0.00 0.00 0.00 0.00 0.00 0.00 0.00 0.00 0.00 0.00 0.00 0.00 0.00 0.00 0.00 0.00 0.00 0.00 0.00 0.00 0.00 0.00 0.00 0.00 0.00 0.00 0.00 0.00 0.00 0.00 0.00 0.00 0.00 0.00 0.00 0.00 0.00 0.00 0.00 0.00 0.00 0.00
0.00 0.00 0.00 0.00 0.00 0.00 0.00 0.00 0.00 0.00 0.00 0.00 0.00 0.00 0.00 0.00 0.00 0.00 0.00 0.00 0.00 0.00 0.00 0.00 0.00 0.00 0.00 0.00 0.00 0.00 0.00 0.00 0.00 0.00 0.00 0.00 0.00 0.00 0.00 0.00 0.00 0.00 0.00 0.00 0.00
0.00 0.00 0.00 0.00 0.00 0.00 0.00 0.00 0.00 0.00 0.00 0.00 0.00 0.00 0.00 0.00 0.00 0.00 0.00 0.00 0.00 0.00 0.00 0.00 0.00 0.00 0.00 0.00 0.00 0.00 0.00 0.00 0.00 0.00 0.00 0.00 0.00 0.00 0.00 0.00 0.00 0.00 0.00 0.00 0.00
0.00 0.00 0.00 0.00 0.00 0.00 0.00 0.00 0.00 0.00 0.00 0.00 0.00 0.00 0.00 0.00 0.00 0.00 0.00 0.00 0.00 0.00 0.00 0.00 0.00 0.00 0.00 0.00 0.00 0.00 0.00 0.00 0.00 0.00 0.00 0.00 0.00 0.00 0.00 0.00 0.00 0.00 0.00 0.00 0.00
0.00 0.00 0.00 0.00 0.00 0.00 0.00 0.00 0.00 0.00 0.00 0.00 0.00 0.00 0.00 0.00 0.00 0.00 0.00 0.00 0.00 0.00 0.00 0.00 0.00 0.00 0.00 0.00 0.00 0.00 0.00 0.00 0.00 0.00 0.00 0.00 0.00 0.00 0.00 0.00 0.00 0.00 0.00 0.00 0.00
0.00 0.00 0.00 0.00 0.00 0.00 0.00 0.00 0.00 0.00 0.00 0.00 0.00 0.00 0.00 0.00 0.00 0.00 0.00 0.00 0.00 0.00 0.00 0.00 0.00 0.00 0.00 0.00 0.00 0.00 0.00 0.00 0.00 0.00 0.00 0.00 0.00 0.00 0.00 0.00 0.00 0.00 0.00 0.00 0.00
0.00 0.00 0.00 0.00 0.00 0.00 0.00 0.00 0.00 0.00 0.00 0.00 0.00 0.00 0.00 0.00 0.00 0.00 0.00 0.00 0.00 0.00 0.00 0.00 0.00 0.00 0.00 0.00 0.00 0.00 0.00 0.00 0.00 0.00 0.00 0.00 0.00 0.00 0.00 0.00 0.00 0.00 0.00 0.00 0.00
0.00 0.00 0.00 0.00 0.00 0.00 0.00 0.00 0.00 0.00 0.00 0.00 0.00 0.00 0.00 0.00 0.00 0.00 0.00 0.00 0.00 0.00 0.00 0.00 0.00 0.00 0.00 0.00 0.00 0.00 0.00 0.00 0.00 0.00 0.00 0.00 0.00 0.00 0.00 0.00 0.00 0.00 0.00 0.00 0.00
0.00 0.00 0.00 0.00 0.00 0.00 0.00 0.00 0.00 0.00 0.00 0.00 0.00 0.00 0.00 0.00 0.00 0.00 0.00 0.00 0.00 0.00 0.00 0.00 0.00 0.00 0.00 0.00 0.00 0.00 0.00 0.00 0.00 0.00 0.00 0.00 0.00 0.00 0.00 0.00 0.00 0.00 0.00 0.00 0.00
0.00 0.00 0.00 0.00 0.00 0.00 0.00 0.00 0.00 0.00 0.00 0.00 0.00 0.00 0.00 0.00 0.00 0.00 0.00 0.00 0.00 0.00 0.00 0.00 0.00 0.00 0.00 0.00 0.00 0.00 0.00 0.00 0.00 0.00 0.00 0.00 0.00 0.00 0.00 0.00 0.00 0.00 0.00 0.00 0.00
0.00 0.00 0.00 0.00 0.00 0.00 0.00 0.00 0.00 0.00 0.00 0.00 0.00 0.00 0.00 0.00 0.00 0.00 0.00 0.00 0.00 0.00 0.00 0.00 0.00 0.00 0.00 0.00 0.00 0.00 0.00 0.00 0.00 0.00 0.00 0.00 0.00 0.00 0.00 0.00 0.00 0.00 0.00 0.00 0.00
0.00 0.00 0.00 0.00 0.00 0.00 0.00 0.00 0.00 0.00 0.00 0.00 0.00 0.00 0.00 0.00 0.00 0.00 0.00 0.00 0.00 0.00 0.00 0.00 0.00 0.00 0.00 0.00 0.00 0.00 0.00 0.00 0.00 0.00 0.00 0.00 0.00 0.00 0.00 0.00 0.00 0.00 0.00 0.00 0.00
0.00 0.00 0.00 0.00 0.00 0.00 0.00 0.00 0.00 0.00 0.00 0.00 0.00 0.00 0.00 0.00 0.00 0.00 0.00 0.00 0.00 0.00 0.00 0.00 0.00 0.00 0.00 0.00 0.00 0.00 0.00 0.00 0.00 0.00 0.00 0.00 0.00 0.00 0.00 0.00 0.00 0.00 0.00 0.00 0.00
0.00 0.00 0.00 0.00 0.00 0.00 0.00 0.00 0.00 0.00 0.00 0.00 0.00 0.00 0.00 0.00 0.00 0.00 0.00 0.00 0.00 0.00 0.00 0.00 0.00 0.00 0.00 0.00 0.00 0.00 0.00 0.00 0.00 0.00 0.00 0.00 0.00 0.00 0.00 0.00 0.00 0.00 0.00 0.00 0.00
0.00 0.00 0.00 0.00 0.00 0.00 0.00 0.00 0.00 0.00 0.00 0.00 0.00 0.00 0.00 0.00 0.00 0.00 0.00 0.00 0.00 0.00 0.00 0.00 0.00 0.00 0.00 0.00 0.00 0.00 0.00 0.00 0.00 0.00 0.00 0.00 0.00 0.00 0.00 0.00 0.00 0.00 0.00 0.00 0.00
0.00 0.00 0.00 0.00 0.00 0.00 0.00 0.00 0.00 0.00 0.00 0.00 0.00 0.00 0.00 0.00 0.00 0.00 0.00 0.00 0.00 0.00 0.00 0.00 0.00 0.00 0.00 0.00 0.00 0.00 0.00 0.00 0.00 0.00 0.00 0.00 0.00 0.00 0.00 0.00 0.00 0.00 0.00 0.00 0.00
0.00 0.00 0.00 0.00 0.00 0.00 0.00 0.00 0.00 0.00 0.00 0.00 0.00 0.00 0.00 0.00 0.00 0.00 0.00 0.00 0.00 0.00 0.00 0.00 0.00 0.00 0.00 0.00 0.00 0.00 0.00 0.00 0.00 0.00 0.00 0.00 0.00 0.01 0.00 0.00 0.00 0.00 0.00 0.00 0.00
0.00 0.00 0.00 0.00 0.00 0.00 0.00 0.00 0.00 0.00 0.00 0.00 0.00 0.00 0.00 0.00 0.00 0.00 0.00 0.00 0.00 0.00 0.00 0.00 0.00 0.00 0.00 0.00 0.00 0.00 0.00 0.00 0.00 0.00 0.00 0.00 0.00 0.02 0.00 0.00 0.00 0.00 0.00 0.00 0.00
0.00 0.00 0.00 0.00 0.00 0.00 0.00 0.00 0.00 0.00 0.00 0.00 0.00 0.00 0.00 0.00 0.00 0.00 0.00 0.00 0.00 0.00 0.00 0.00 0.00 0.00 0.00 0.00 0.00 0.00 0.00 0.00 0.00 0.00 0.00 0.00 0.00 0.00 0.00 0.00 0.00 0.00 0.00 0.00 0.00
MSLP
1018.51 1018.19 1017.78 1017.46 1017.07 1016.83 1016.48 1015.95 1015.47 1015.03 1014.54 1013.85 1013.40 1013.12 1012.75 1012.09 1011.01 1010.73 1008.59 1008.29 1008.05 1008.38 1008.57 1007.30 1006.97 1006.35 1005.81 1004.75 1003.47 1002.98 1004.17 1002.60 1000.05 1000.39 1000.03 1000.85 1000.91 1002.36 1002.94 1003.49 1004.41 1005.09 1005.43 1006.37 1007.83
1018.77 1018.34 1018.00 1017.38 1017.04 1016.85 1016.39 1015.85 1015.31 1014.95 1014.36 1013.81 1013.39 1012.77 1012.49 1012.06 1010.23 1008.07 1008.36 1008.13 1008.23 1008.42 1007.72 1006.37 1005.81 1005.38 1004.62 1003.41 1002.23 1001.75 1004.11 1001.45 1000.47 1000.49 1000.16 1000.57 1000.81 1001.70 1001.79 1002.89 1004.24 1005.37 1006.07 1006.90 1007.64
1018.84 1018.45 1018.06 1017.53 1017.31 1016.80 1016.21 1015.73 1015.20 1014.74 1014.26 1013.64 1013.05 1012.70 1012.34 1011.92 1009.30 1006.90 1007.90 1008.29 1008.26 1008.10 1006.83 1005.82 1005.09 1004.42 1003.80 1002.44 1001.35 1000.81 1001.90 1000.53 1000.53 1000.97 1000.63 1000.03 1000.96 1001.20 1000.71 1000.13 1002.95 1004.53 1005.82 1006.81 1007.48
1018.86 1018.51 1017.99 1017.74 1017.30 1016.74 1016.10 1015.65 1014.93 1014.54 1014.07 1013.48 1012.87 1012.26 1011.95 1010.74 1007.44 1007.03 1007.72 1008.09 1007.97 1007.37 1006.26 1005.48 1004.83 1004.00 1003.17 1001.67 1001.23 1001.07 1000.65 1000.81 1000.22 1000.59 1000.53 1000.24 1000.21 1000.83 1001.21 1001.39 1002.86 1004.06 1005.27 1006.52 1007.01
1019.09 1018.51 1018.04 1017.69 1017.08 1016.53 1016.05 1015.49 1014.80 1014.23 1013.77 1013.14 1012.69 1012.24 1010.91 1008.64 1006.17 1007.01 1007.56 1007.63 1007.17 1006.25 1005.31 1004.68 1004.02 1003.31 1002.28 1001.17 1001.32 1000.87 1000.41 1000.79 1000.43 1000.49 1000.69 1000.65 1000.50 1000.79 1001.15 1001.50 1003.03 1003.85 1005.05 1005.90 1006.72
1019.18 1018.65 1018.10 1017.53 1016.96 1016.39 1015.90 1015.10 1014.60 1014.15 1013.46 1012.91 1012.44 1012.29 1010.45 1007.27 1006.12 1006.26 1006.45 1006.37 1005.65 1005.12 1004.49 1004.35 1003.49 1003.01 1002.45 1001.45 1001.19 1000.55 1000.71 1000.41 1000.27 1000.17 1000.63 1000.54 1000.06 1000.54 1000.63 1001.51 1002.82 1003.74 1004.70 1005.37 1006.18
1019.13 1018.59 1018.02 1017.40 1016.71 1016.27 1015.57 1014.92 1014.39 1013.77 1013.26 1012.61 1012.20 1011.63 1008.70 1006.25 1006.03 1005.97 1006.03 1005.44 1005.41 1004.79 1004.11 1004.27 1004.15 1003.50 1002.18 1001.66 1001.28 1001.07 1000.72 1000.01 999.66 999.87 1000.08 1000.14 1000.07 1000.34 1000.39 1001.25 1002.55 1003.54 1004.43 1005.06 1005.71
1019.07 1018.47 1017.95 1017.25 1016.69 1015.92 1015.10 1014.37 1013.85 1013.09 1012.71 1012.11 1011.90 1010.70 1007.16 1005.91 1005.86 1005.93 1005.48 1005.09 1005.17 1004.87 1004.71 1004.54 1004.31 1003.47 1002.62 1001.74 1001.55 1000.90 1000.05 998.93 999.31 1000.01 1000.07 1000.43 1001.37 1001.84 1000.18 1001.07 1002.02 1003.24 1004.10 1004.99 1005.58
1019.15 1018.55 1017.89 1017.21 1016.44 1015.65 1014.83 1013.89 1013.17 1012.67 1012.30 1011.87 1011.06 1009.05 1005.89 1006.59 1005.80 1005.00 1004.98 1004.67 1004.43 1004.56 1004.45 1004.74 1004.38 1003.12 1002.12 1001.94 1000.84 999.94 999.67 1000.04 999.41 1000.01 1000.18 1000.17 999.66 1000.11 999.92 1000.74 1001.51 1002.79 1003.74 1004.69 1005.61
1019.27 1018.65 1018.01 1017.16 1016.34 1015.50 1014.28 1013.09 1012.23 1012.29 1011.80 1010.51 1009.41 1008.15 1005.67 1005.03 1004.93 1005.01 1004.95 1005.08 1004.60 1004.07 1004.07 1004.17 1003.57 1002.68 1002.07 1001.07 999.64 998.98 999.03 999.48 999.57 999.80 1000.10 999.68 999.33 999.23 999.92 1000.30 1001.16 1002.07 1003.33 1004.38 1005.28
1019.35 1018.75 1017.95 1017.07 1016.19 1015.45 1014.04 1010.98 1011.68 1010.99 1009.37 1007.27 1006.23 1005.29 1005.21 1005.15 1005.49 1005.00 1004.73 1004.83 1004.54 1004.22 1003.36 1003.11 1002.53 1001.49 1001.00 1000.72 999.88 999.87 999.63 999.34 999.78 1000.16 1000.43 999.53 999.64 999.38 1000.05 1000.30 1000.69 1001.70 1002.95 1004.01 1005.06
1019.08 1018.45 1017.80 1016.87 1016.00 1015.29 1014.90 1010.93 1011.11 1011.18 1008.41 1005.95 1005.64 1005.28 1005.22 1005.34 1004.44 1004.23 1004.61 1004.50 1004.01 1003.46 1003.01 1002.84 1002.06 1001.22 1000.90 1001.02 1000.61 1000.74 1000.47 1000.21 999.97 1000.39 1000.54 999.64 999.31 999.53 1000.02 1000.29 1000.85 1001.13 1002.07 1003.67 1004.67
1019.18 1018.63 1017.86 1016.83 1015.81 1014.51 1012.17 1011.32 1011.07 1010.49 1008.41 1004.91 1004.57 1004.45 1004.34 1004.74 1004.03 1003.29 1004.19 1003.78 1003.40 1003.17 1002.49 1002.21 1001.16 1001.27 1001.75 1001.57 1001.49 1000.99 1000.56 1000.13 999.97 1000.13 1000.22 999.82 999.16 999.45 1000.49 1000.74 1001.09 1001.38 1002.09 1003.15 1004.28
1019.26 1018.65 1017.90 1016.69 1015.55 1012.50 1011.18 1011.30 1010.77 1010.69 1007.73 1004.06 1003.87 1003.58 1003.99 1004.05 1003.37 1003.27 1003.46 1003.36 1003.15 1002.76 1002.43 1002.02 1001.53 1001.95 1001.98 1001.71 1001.40 1000.69 1000.36 1000.43 1000.35 1000.39 999.37 999.88 998.97 999.18 1000.04 1000.54 1001.00 1001.86 1002.33 1003.28 1004.45
1019.17 1018.59 1017.88 1017.73 1015.19 1012.09 1011.52 1011.06 1010.72 1010.31 1006.16 1003.14 1003.08 1003.65 1002.91 1003.25 1002.11 1002.61 1003.28 1003.24 1002.84 1002.67 1002.85 1001.83 1001.70 1001.65 1001.66 1001.37 1001.27 1000.74 1000.48 1000.65 1000.82 1000.55 1000.08 999.57 999.35 998.92 999.67 1000.00 1000.95 1002.09 1003.01 1003.89 1005.32
1018.83 1018.34 1017.67 1015.47 1014.59 1012.11 1011.69 1011.27 1010.87 1008.84 1004.44 1002.97 1002.75 1002.92 1002.81 1002.71 1002.16 1002.53 1002.97 1003.23 1002.91 1002.64 1002.62 1001.84 1001.88 1001.55 1001.38 1001.21 1001.23 1000.90 1001.17 1001.11 1001.01 1000.52 999.65 999.42 999.67 998.94 999.30 1000.54 1001.09 1002.45 1004.01 1005.21 1006.39
1018.35 1017.83 1017.63 1015.19 1012.27 1012.36 1011.89 1010.89 1008.95 1005.87 1003.53 1002.38 1002.10 1002.05 1001.87 1001.70 1002.04 1002.28 1002.56 1002.74 1002.43 1002.41 1001.92 1001.83 1001.57 1001.65 1001.47 1001.03 1001.37 1001.22 1000.88 1000.47 1000.18 999.57 999.16 999.46 1000.05 999.53 1000.28 1001.31 1001.95 1002.58 1004.32 1005.49 1006.76
1017.68 1017.19 1015.30 1014.07 1012.90 1012.80 1011.74 1010.03 1007.05 1004.45 1003.03 1002.70 1002.28 1001.63 1001.24 1000.99 1001.40 1001.54 1001.72 1001.73 1002.04 1001.48 1000.69 1000.49 1000.38 1000.82 1000.87 1000.79 1000.31 1000.79 1000.47 999.75 999.16 999.03 998.97 999.97 999.91 999.93 1000.77 1001.77 1002.55 1003.16 1004.60 1005.85 1006.75
1016.99 1014.77 1013.39 1012.63 1012.94 1012.78 1010.99 1008.31 1005.87 1004.19 1003.43 1002.81 1002.43 1001.91 1000.99 1000.87 1001.06 1001.21 1001.31 1000.95 1000.96 1001.36 1001.12 999.97 999.89 999.72 1000.32 1000.58 1000.46 999.97 1000.41 1000.10 999.93 999.83 999.78 999.38 999.78 1000.29 1000.96 1001.59 1002.52 1003.27 1004.65 1005.59 1006.54
1015.86 1012.64 1011.51 1012.47 1012.59 1012.01 1010.16 1007.51 1005.45 1004.99 1004.99 1004.46 1003.07 1001.75 1000.98 1000.65 1001.11 1000.80 1000.71 1000.75 1000.38 1000.63 1001.38 1000.44 1000.20 999.75 1000.13 1000.57 1000.38 1000.23 1000.27 1000.32 1000.43 1000.08 999.58 999.39 999.59 999.24 1000.55 1001.04 1002.43 1003.31 1004.18 1005.37 1006.05
1015.58 1011.77 1011.92 1012.07 1012.11 1010.73 1008.46 1006.91 1006.12 1005.75 1006.02 1005.04 1003.63 1002.55 1001.97 1000.83 1000.70 1000.41 1000.40 1000.42 1000.45 1000.33 1001.05 1000.91 1000.92 999.33 999.99 1000.43 999.98 1000.53 1000.34 1000.06 999.41 999.62 999.21 1000.53 1000.91 999.61 1000.43 1001.39 1002.02 1003.12 1004.20 1005.46 1005.89
1013.59 1010.81 1011.58 1011.71 1010.69 1009.06 1007.65 1006.93 1008.13 1006.42 1006.49 1005.73 1005.19 1004.09 1003.09 1002.23 1001.72 1000.98 1000.22 999.99 1000.26 1000.44 1000.63 1000.95 1000.84 1000.08 999.66 999.86 1000.04 999.56 999.62 1000.11 999.94 1000.29 1000.49 1000.59 1001.89 1001.28 1001.33 1001.99 1002.54 1003.30 1004.67 1005.25 1005.68
1012.51 1010.53 1011.29 1010.97 1008.72 1007.52 1007.33 1007.43 1007.67 1006.96 1006.45 1005.86 1005.32 1004.84 1004.25 1003.54 1003.01 1001.71 1000.98 1001.03 1001.29 1000.94 1000.84 1001.05 1001.06 1000.41 1000.10 999.63 1000.29 1000.11 1000.01 999.98 1000.04 1000.73 1000.76 1001.05 1001.18 1001.38 1002.09 1002.51 1002.93 1003.63 1004.89 1005.83 1006.30
1012.80 1010.12 1010.26 1010.25 1008.64 1007.87 1007.03 1007.48 1007.29 1007.41 1006.92 1006.27 1005.80 1005.25 1004.98 1004.30 1003.69 1002.61 1001.84 1001.59 1002.03 1001.82 1002.11 1001.85 1001.01 1000.87 999.44 999.19 998.89 999.48 1000.03 1000.03 1000.27 1000.17 1000.41 1000.87 1002.27 1002.84 1003.09 1002.87 1003.83 1004.51 1005.47 1006.19 1006.71
1012.57 1009.60 1009.56 1008.70 1008.29 1008.00 1007.86 1007.55 1007.15 1006.91 1007.23 1006.63 1006.37 1006.00 1005.33 1004.51 1003.78 1003.00 1002.61 1001.63 1002.25 1002.43 1002.50 1002.23 1001.87 1001.44 1000.53 999.91 999.00 998.61 999.39 999.75 1000.05 1000.18 1000.29 1001.93 1003.93 1005.27 1003.51 1003.58 1004.01 1005.03 1005.96 1006.47 1007.03
1012.96 1011.06 1010.14 1008.92 1009.17 1008.58 1008.35 1007.79 1007.51 1006.91 1006.81 1006.50 1006.43 1005.47 1005.21 1004.84 1004.20 1002.95 1002.58 1001.92 1001.67 1001.84 1002.44 1002.29 1002.06 1001.85 1000.81 1000.23 999.43 999.37 999.31 999.28 999.67 999.87 1000.43 1001.43 1003.93 1004.96 1004.85 1004.16 1005.05 1005.99 1006.49 1006.94 1007.37
1013.65 1012.52 1011.52 1009.49 1009.09 1008.40 1007.39 1007.71 1007.64 1007.47 1007.33 1006.93 1005.97 1005.69 1004.98 1004.87 1004.77 1004.09 1003.55 1003.34 1002.83 1002.60 1002.21 1002.19 1002.09 1001.89 1000.85 1000.28 999.67 999.11 999.21 999.03 999.49 999.88 1000.11 1000.88 1002.29 1003.59 1003.72 1004.68 1005.87 1006.49 1006.87 1007.20 1007.58
Thickness
5757 5763 5768 5772 5776 5779 5784 5789 5793 5797 5803 5810 5815 5819 5823 5830 5839 5843 5850 5859 5866 5866 5866 5873 5871 5872 5875 5869 5886 5888 5795 5804 5870 5860 5874 5887 5878 5877 5879 5859 5856 5855 5850 5850 5845
5752 5758 5763 5770 5774 5777 5783 5788 5793 5797 5803 5808 5813 5820 5824 5829 5844 5854 5858 5860 5861 5864 5865 5865 5859 5870 5862 5872 5886 5874 5798 5849 5887 5886 5882 5886 5884 5875 5871 5858 5848 5845 5854 5854 5848
5748 5754 5760 5766 5769 5776 5782 5787 5793 5797 5803 5808 5814 5818 5823 5827 5838 5854 5860 5857 5859 5864 5874 5877 5877 5871 5858 5879 5888 5887 5845 5886 5887 5887 5891 5895 5879 5891 5879 5857 5862 5847 5848 5849 5844
5744 5750 5757 5760 5766 5774 5781 5786 5793 5798 5803 5808 5814 5820 5823 5833 5816 5859 5860 5858 5861 5868 5871 5868 5866 5856 5855 5866 5890 5866 5889 5886 5896 5893 5889 5886 5899 5882 5880 5877 5881 5872 5864 5851 5845
5738 5746 5753 5758 5765 5772 5779 5785 5792 5799 5803 5809 5813 5818 5832 5832 5844 5862 5860 5861 5865 5871 5866 5863 5859 5862 5855 5882 5881 5874 5887 5888 5895 5893 5888 5891 5883 5880 5878 5893 5884 5878 5864 5854 5848
5733 5740 5748 5756 5763 5770 5777 5785 5792 5797 5803 5809 5813 5816 5826 5816 5866 5867 5867 5867 5872 5872 5870 5869 5865 5875 5863 5874 5871 5890 5884 5889 5894 5893 5887 5878 5888 5885 5888 5893 5877 5871 5861 5860 5853
5728 5736 5745 5754 5762 5767 5776 5783 5790 5797 5802 5809 5813 5819 5827 5834 5866 5868 5868 5869 5874 5874 5865 5874 5875 5865 5878 5865 5889 5883 5867 5887 5894 5895 5885 5893 5873 5867 5895 5891 5872 5866 5863 5861 5857
5724 5733 5740 5750 5759 5768 5776 5785 5792 5800 5805 5811 5813 5820 5821 5864 5866 5863 5870 5868 5876 5879 5873 5878 5878 5869 5867 5885 5875 5866 5879 5869 5888 5888 5890 5882 5835 5843 5899 5885 5870 5865 5862 5856 5856
5719 5728 5736 5746 5756 5766 5775 5786 5794 5800 5805 5809 5817 5823 5822 5857 5848 5868 5871 5858 5870 5873 5877 5876 5870 5861 5872 5851 5854 5873 5846 5837 5873 5887 5880 5876 5864 5877 5901 5885 5874 5866 5862 5854 5849
5712 5722 5730 5742 5752 5763 5776 5789 5796 5799 5805 5815 5823 5810 5837 5833 5853 5860 5870 5863 5854 5860 5856 5855 5854 5845 5852 5854 5835 5861 5867 5862 5858 5879 5876 5874 5875 5893 5890 5888 5876 5870 5863 5853 5846
5706 5715 5726 5737 5748 5759 5772 5801 5796 5794 5810 5815 5824 5828 5832 5848 5855 5848 5862 5853 5853 5846 5829 5849 5834 5829 5849 5865 5876 5868 5864 5861 5870 5878 5863 5872 5868 5882 5883 5883 5879 5871 5861 5852 5845
5702 5712 5721 5733 5745 5754 5761 5787 5784 5785 5788 5829 5829 5830 5839 5843 5828 5843 5859 5832 5833 5821 5842 5833 5823 5855 5868 5861 5860 5855 5849 5850 5871 5872 5862 5870 5869 5879 5878 5878 5877 5876 5864 5853 5847
5695 5704 5714 5727 5740 5755 5775 5778 5789 5794 5782 5817 5829 5825 5830 5837 5824 5836 5845 5841 5830 5822 5833 5823 5850 5858 5847 5844 5837 5845 5845 5853 5854 5867 5870 5865 5857 5862 5867 5874 5875 5876 5871 5862 5852
5687 5697 5708 5723 5736 5763 5768 5778 5786 5788 5767 5802 5809 5823 5831 5833 5821 5852 5855 5841 5830 5821 5832 5833 5854 5839 5834 5832 5844 5831 5867 5860 5853 5844 5836 5867 5828 5858 5862 5859 5864 5862 5862 5857 5851
5681 5690 5701 5708 5733 5751 5763 5774 5781 5777 5740 5809 5810 5843 5840 5821 5836 5835 5855 5840 5819 5823 5826 5825 5833 5833 5826 5836 5850 5841 5865 5854 5849 5842 5846 5851 5840 5861 5869 5855 5855 5854 5853 5852 5842
5677 5685 5696 5716 5727 5750 5758 5766 5765 5742 5741 5788 5811 5807 5808 5819 5828 5834 5831 5843 5842 5825 5829 5831 5851 5846 5842 5852 5852 5863 5846 5845 5846 5844 5821 5848 5839 5849 5856 5847 5855 5851 5842 5837 5830
5675 5683 5689 5708 5731 5741 5749 5750 5733 5735 5795 5788 5795 5810 5810 5809 5812 5817 5811 5807 5804 5789 5798 5820 5827 5842 5850 5834 5846 5843 5832 5807 5806 5816 5816 5852 5831 5848 5857 5854 5852 5847 5838 5835 5827
5674 5682 5699 5708 5723 5730 5737 5731 5715 5765 5779 5796 5797 5807 5799 5815 5811 5814 5810 5803 5820 5822 5817 5806 5800 5830 5847 5838 5834 5831 5836 5821 5796 5809 5825 5842 5816 5838 5859 5858 5854 5851 5841 5831 5824
5674 5694 5703 5712 5714 5721 5723 5713 5733 5764 5781 5774 5788 5780 5795 5808 5809 5807 5805 5810 5823 5825 5799 5813 5811 5853 5847 5850 5848 5837 5817 5855 5827 5838 5819 5838 5842 5853 5856 5849 5846 5843 5835 5828 5824
5677 5702 5709 5708 5711 5712 5709 5714 5749 5761 5760 5765 5758 5789 5782 5797 5791 5799 5802 5820 5822 5834 5832 5825 5798 5840 5841 5847 5849 5839 5854 5816 5823 5787 5792 5822 5823 5830 5834 5840 5838 5834 5832 5828 5828
5675 5695 5702 5706 5707 5704 5704 5726 5741 5753 5753 5751 5761 5770 5779 5792 5798 5800 5801 5819 5828 5829 5830 5825 5810 5831 5834 5817 5821 5822 5820 5833 5847 5836 5810 5776 5793 5852 5841 5842 5838 5836 5833 5824 5824
5685 5687 5699 5703 5691 5708 5711 5729 5703 5739 5744 5747 5752 5759 5763 5778 5776 5789 5799 5815 5831 5831 5809 5824 5812 5798 5817 5840 5846 5851 5838 5832 5812 5804 5822 5816 5783 5850 5847 5844 5842 5836 5828 5829 5828
5681 5692 5695 5698 5690 5705 5716 5714 5720 5723 5730 5737 5739 5753 5760 5758 5752 5782 5797 5813 5815 5819 5812 5820 5798 5784 5795 5825 5830 5818 5832 5837 5839 5826 5805 5797 5803 5850 5839 5837 5840 5833 5826 5821 5820
5674 5676 5683 5688 5703 5699 5705 5701 5706 5720 5722 5734 5736 5746 5742 5745 5761 5764 5778 5796 5806 5810 5797 5814 5803 5789 5796 5811 5836 5810 5817 5829 5823 5811 5815 5819 5805 5807 5815 5825 5824 5824 5820 5816 5813
5671 5679 5683 5676 5687 5692 5696 5699 5700 5703 5716 5727 5722 5726 5732 5731 5745 5754 5772 5791 5795 5786 5798 5799 5774 5793 5808 5820 5832 5832 5820 5820 5811 5820 5813 5788 5769 5761 5801 5818 5822 5820 5813 5809 5805
5652 5662 5674 5678 5677 5681 5672 5687 5690 5704 5708 5710 5711 5731 5736 5727 5740 5753 5767 5782 5781 5794 5786 5796 5771 5786 5787 5810 5821 5810 5821 5824 5821 5826 5825 5824 5779 5781 5801 5817 5810 5805 5803 5799 5798
5648 5656 5657 5658 5669 5675 5686 5684 5687 5697 5705 5714 5721 5722 5725 5735 5748 5757 5763 5767 5775 5769 5777 5779 5777 5772 5767 5802 5807 5791 5810 5819 5819 5826 5828 5811 5806 5808 5808 5806 5800 5798 5798 5796 5795